Gewässerkundlicher Dienst Bayern

Monatsgrafik Röckersbühl

Wind vom 01.05.2026 bis zum 04.05.2026
Hinweis
Lufttemperatur- und Luftfeuchtegeber defekt
Wind vom 01.05.2026 bis zum 04.05.2026
DatumWind [m/s]
04.05.2026 09:002,4
04.05.2026 08:001,2
04.05.2026 07:000,9
04.05.2026 06:001,2
04.05.2026 05:001,2
04.05.2026 04:001,7
04.05.2026 03:001,7
04.05.2026 02:004,5
04.05.2026 01:005,7
04.05.2026 00:004,0
03.05.2026 23:003,6
03.05.2026 22:001,9
03.05.2026 21:000,9
03.05.2026 20:003,4
03.05.2026 19:004,1
03.05.2026 18:004,8
03.05.2026 17:005,0
03.05.2026 16:002,6
03.05.2026 15:002,9
03.05.2026 14:003,4
03.05.2026 13:003,4
03.05.2026 12:002,6
03.05.2026 11:002,4
03.05.2026 10:003,8
03.05.2026 09:004,7
03.05.2026 08:003,1
03.05.2026 07:001,2
03.05.2026 06:001,4
03.05.2026 05:001,5
03.05.2026 04:001,2
03.05.2026 03:001,2
03.05.2026 02:001,0
03.05.2026 01:001,4
03.05.2026 00:001,7
02.05.2026 23:001,5
02.05.2026 22:001,9
02.05.2026 21:002,2
02.05.2026 20:001,7
02.05.2026 19:001,4
02.05.2026 18:002,9
02.05.2026 17:004,1
02.05.2026 16:004,3
02.05.2026 15:004,5
02.05.2026 14:005,0
02.05.2026 13:005,2
02.05.2026 12:005,3
02.05.2026 11:006,9
02.05.2026 10:006,9
02.05.2026 09:006,9
02.05.2026 08:003,6
02.05.2026 07:001,2
02.05.2026 06:001,4
02.05.2026 05:001,9
02.05.2026 04:001,7
02.05.2026 03:001,9
02.05.2026 02:001,4
02.05.2026 01:001,5
02.05.2026 00:001,5
01.05.2026 23:001,7
01.05.2026 22:001,5
01.05.2026 21:001,7
01.05.2026 20:001,5
01.05.2026 19:002,4
01.05.2026 18:004,5
01.05.2026 17:004,5
01.05.2026 16:006,0
01.05.2026 15:006,0
01.05.2026 14:007,7
01.05.2026 13:007,7
01.05.2026 12:008,3
01.05.2026 11:006,9
01.05.2026 10:007,6
01.05.2026 09:006,9
01.05.2026 08:005,3
01.05.2026 07:003,6
01.05.2026 06:001,4
01.05.2026 05:001,7
01.05.2026 04:001,9
01.05.2026 03:001,7
01.05.2026 02:002,1
01.05.2026 01:001,9
01.05.2026 00:004,1
Ihre Auswahl wurde erfolgreich in den Download-Korb gelegt.